Palacios, TX

8:58 AM CDT on September 26, 2017 (GMT -0500)
Palacios Municipal

Weather History for KPSX - February, 2012

Change the Weather History Date:

Friday, February 24, 2012

  Actual Average Record
Temperature  
Mean Temperature 62 °F -  
Max Temperature 70 °F 68 °F 84 °F (2017)
Min Temperature 52 °F 48 °F 27 °F (1965)
Degree Days  
Heating Degree Days 4    
Growing Degree Days 12 (Base 50)    
Moisture  
Dew Point 47 °F    
Average Humidity 63    
Maximum Humidity 100    
Minimum Humidity 29    
Precipitation  
Precipitation 0.02 in - - ()
Sea Level Pressure  
Sea Level Pressure 30.00 in    
Wind  
Wind Speed 16 mph (NNW)    
Max Wind Speed 28 mph    
Max Gust Speed 40 mph    
Visibility 8 miles    
Events Fog , Rain    
Averages and records for this station are not official NWS values.
T = Trace of Precipitation, MM = Missing Value Source: NWS Daily Summary

Daily Weather History Graph

Daily Weather History Graph

Search for Another Location

Airport or City:

Trip Planner

Search our weather history database for the weather conditions in past years. The results will help you decide how hot, cold, wet, or windy it might be!

Date:

Astronomy

Feb. 24, 2012 Rise Set
Actual Time 6:55 AM CST 6:21 PM CST
Civil Twilight 6:31 AM CST 6:45 PM CST
Nautical Twilight 6:04 AM CST 7:12 PM CST
Astronomical Twilight 5:36 AM CST 7:40 PM CST
Moon 8:09 AM CST (2/24) 9:04 PM CST (2/24)
Length of Visible Light 12h 13m
Length of Day
11h 25m
Waxing Crescent, 8% of the Moon is Illuminated
Feb 24
Waxing Crescent
Feb 29
First Quarter
Mar 8
Full
Mar 14
Last Quarter
Mar 22
New

Hourly Weather History & Observations

Time (CST) Temp. Dew Point Humidity Pressure Visibility Wind Dir Wind Speed Gust Speed Precip Events Conditions
1:46 AM 69.8 °F 69.8 °F 100% 29.70 in 0.5 mi SW 11.5 mph - N/A Fog Fog
1:53 AM 69.1 °F 69.1 °F 100% 29.70 in 0.5 mi SW 10.4 mph - N/A Fog Fog
2:16 AM 69.8 °F 69.8 °F 100% 29.71 in 0.5 mi SW 10.4 mph - N/A Fog Fog
2:42 AM 69.8 °F 69.8 °F 100% 29.76 in 1.0 mi WNW 12.7 mph 18.4 mph 0.00 in Rain Light Rain
2:49 AM 69.8 °F 69.8 °F 100% 29.76 in 1.0 mi WNW 11.5 mph - 0.00 in Rain Light Rain
2:53 AM 70.0 °F 70.0 °F 100% 29.76 in 1.0 mi WNW 13.8 mph - 0.00 in Rain Light Rain
3:26 AM 69.8 °F 69.8 °F 100% 29.77 in 2.5 mi NW 10.4 mph - 0.01 in Rain Light Rain
3:31 AM 69.8 °F 69.8 °F 100% 29.78 in 4.0 mi NNW 13.8 mph - 0.01 in   Overcast
3:39 AM 60.8 °F 59.0 °F 94% 29.79 in 7.0 mi North 26.5 mph 40.3 mph 0.02 in   Overcast
3:53 AM 64.0 °F 55.9 °F 75% 29.79 in 10.0 mi North 21.9 mph 26.5 mph 0.02 in   Overcast
4:14 AM 62.6 °F 55.4 °F 77% 29.80 in 10.0 mi North 17.3 mph 25.3 mph N/A   Scattered Clouds
4:53 AM 61.0 °F 48.0 °F 62% 29.83 in 10.0 mi North 27.6 mph 36.8 mph N/A   Scattered Clouds
5:53 AM 59.0 °F 43.0 °F 55% 29.90 in 10.0 mi North 25.3 mph 38.0 mph N/A   Partly Cloudy
6:53 AM 57.0 °F 39.0 °F 51% 29.91 in 10.0 mi North 26.5 mph 39.1 mph N/A   Clear
7:53 AM 57.0 °F 35.1 °F 44% 29.98 in 10.0 mi NNE 27.6 mph 40.3 mph N/A   Clear
8:53 AM 57.0 °F 37.0 °F 47% 30.05 in 10.0 mi North 24.2 mph 33.4 mph N/A   Clear
9:53 AM 59.0 °F 36.0 °F 42% 30.07 in 10.0 mi North 26.5 mph 34.5 mph N/A   Clear
10:53 AM 60.1 °F 36.0 °F 41% 30.11 in 10.0 mi North 27.6 mph 34.5 mph N/A   Clear
12:53 PM 61.0 °F 32.0 °F 34% 30.14 in 10.0 mi North 25.3 mph 33.4 mph N/A   Clear
1:53 PM 60.1 °F 32.0 °F 35% 30.16 in 10.0 mi North 23.0 mph 28.8 mph N/A   Overcast
2:53 PM 61.0 °F 33.1 °F 35% 30.16 in 10.0 mi North 20.7 mph - N/A   Overcast
3:53 PM 61.0 °F 28.0 °F 29% 30.18 in 10.0 mi North 19.6 mph - N/A   Clear
4:53 PM 59.0 °F 35.1 °F 41% 30.17 in 10.0 mi North 16.1 mph - N/A   Clear
5:53 PM 57.9 °F 34.0 °F 41% 30.18 in 10.0 mi North 15.0 mph - N/A   Clear
6:53 PM 57.0 °F 32.0 °F 39% 30.22 in 10.0 mi North 15.0 mph - N/A   Clear
7:53 PM 55.9 °F 33.1 °F 42% 30.25 in 10.0 mi North 12.7 mph - N/A   Clear
8:53 PM 54.0 °F 35.1 °F 49% 30.30 in 10.0 mi North 9.2 mph - N/A   Clear
9:53 PM 53.1 °F 37.0 °F 55% 30.32 in 10.0 mi North 11.5 mph - N/A   Scattered Clouds
10:53 PM 53.1 °F 37.0 °F 55% 30.30 in 10.0 mi North 12.7 mph - N/A   Clear
11:53 PM 52.0 °F 37.0 °F 57% 30.30 in 10.0 mi North 12.7 mph - N/A   Clear